Dewpoint
57 57 57 58 58 58 58 56 56 56 56 56 56 57 57 57 56 54 41 39 49 57 49 34 34 35 36 31 28 20 16 13 13 18 18 15 19 21 34 43 46 46 50 50 47
56 55 55 55 56 57 57 57 56 56 56 56 57 57 57 56 53 47 50 56 58 57 34 30 28 31 28 25 25 19 15 14 13 16 11 9 17 20 38 47 49 50 51 50 45
56 55 55 55 56 57 57 57 56 56 56 56 56 57 56 55 49 41 54 57 58 58 36 35 34 30 26 23 17 13 7 12 11 9 11 13 17 19 36 44 49 49 49 47 44
55 54 54 54 56 57 57 56 56 56 56 57 56 57 56 53 33 29 54 59 61 52 40 38 37 32 19 14 15 6 11 10 14 10 10 10 11 15 24 37 50 49 49 48 45
54 54 54 55 56 56 56 56 56 56 56 56 56 56 54 48 40 37 58 59 54 43 38 36 33 22 15 13 8 8 10 10 17 16 9 8 11 17 19 38 50 49 49 48 45
56 56 56 56 56 56 56 55 55 56 56 56 56 56 50 38 37 28 36 49 38 35 34 36 31 25 22 14 8 11 9 9 14 17 17 15 17 15 18 40 48 48 47 47 46
56 56 55 56 56 55 55 55 55 55 55 55 56 53 50 42 41 36 26 24 25 32 29 31 30 26 29 16 16 13 11 14 18 18 16 19 17 13 16 41 46 46 47 47 47
56 55 55 55 54 54 54 54 54 54 55 55 56 52 41 42 34 26 25 23 25 29 32 29 26 30 22 24 18 18 18 16 18 20 22 18 16 17 16 27 38 43 44 44 44
55 55 54 54 53 53 53 53 53 54 54 54 51 51 31 42 26 23 23 28 29 29 29 24 27 27 23 19 18 18 13 18 20 21 22 20 18 20 18 19 22 28 41 43 45
54 54 53 53 53 52 52 53 53 53 53 51 47 42 40 36 25 23 26 31 32 30 28 25 28 25 23 20 15 17 13 19 18 18 18 18 21 22 24 33 38 41 42 43 44
54 53 53 52 52 52 51 48 41 42 46 31 35 38 29 26 25 23 25 30 31 30 27 28 23 21 16 19 18 16 18 18 18 19 16 18 21 25 34 38 39 40 42 43 44
53 53 52 52 52 52 50 47 43 42 33 37 40 37 36 23 26 27 29 28 31 27 30 24 22 21 19 24 24 21 22 21 21 22 17 21 22 26 32 36 39 40 41 43 44
53 52 52 52 52 50 47 49 50 51 41 28 33 27 28 31 29 25 29 31 28 26 27 25 22 22 26 27 27 29 25 26 23 24 23 21 22 28 31 34 37 40 42 43 43
52 52 52 52 48 50 44 45 49 49 26 26 27 25 29 29 27 26 27 29 29 26 23 22 23 25 28 26 27 28 30 28 25 23 17 22 18 24 29 32 35 38 41 42 43
52 53 52 52 48 52 50 56 53 47 18 25 26 25 24 29 27 26 25 30 27 25 24 24 28 29 27 28 27 27 30 29 29 26 25 25 20 22 32 32 34 36 39 41 43
53 53 52 50 51 54 58 57 43 37 19 26 27 25 24 29 28 25 27 29 31 26 24 25 29 28 29 30 29 31 31 32 31 29 24 27 27 22 29 33 35 37 38 40 41
53 53 51 54 52 57 57 43 29 31 29 23 24 24 27 27 28 26 29 30 31 23 24 26 29 29 29 29 30 29 30 26 26 27 25 32 32 33 35 35 36 37 38 39 40
52 52 54 59 60 58 50 36 30 32 27 26 27 30 27 29 29 31 29 29 30 34 27 27 26 27 29 29 28 29 31 27 22 24 24 29 29 30 35 37 38 38 38 38 38
52 55 57 58 59 55 43 36 33 32 27 25 27 28 29 30 28 31 30 29 30 31 28 29 27 30 29 29 29 27 29 28 27 29 25 27 30 31 35 36 37 39 41 42 39
52 52 52 58 57 49 43 38 36 33 31 28 26 29 26 27 28 30 32 34 32 31 34 31 27 29 28 28 30 28 28 26 29 21 22 24 28 31 33 35 36 35 37 38 39
53 41 49 58 50 42 36 38 35 34 36 32 32 27 29 27 30 32 33 35 34 33 31 32 31 27 29 25 25 27 28 28 28 28 24 22 22 32 33 34 34 37 38 39 37
49 38 54 49 30 40 34 36 35 33 36 35 36 36 31 31 34 36 35 35 39 39 29 33 30 24 26 27 29 28 29 30 26 22 28 26 23 34 35 35 35 35 37 38 38
45 49 55 45 26 34 36 37 36 34 34 35 36 37 37 34 35 38 37 41 37 37 35 33 28 25 26 30 31 26 27 28 32 28 25 20 22 29 34 36 36 37 38 39 39
49 40 45 49 43 36 35 35 37 40 37 37 36 36 36 35 39 37 38 40 39 35 41 39 31 26 25 25 25 21 22 22 27 25 25 26 26 30 36 36 37 38 40 40 40
50 41 38 33 36 41 39 36 36 36 38 37 34 36 34 33 36 37 39 39 39 39 37 36 30 32 31 29 26 24 23 23 21 21 22 24 28 33 35 36 37 38 39 38 37
49 46 44 37 34 37 39 36 36 37 36 36 34 38 37 35 35 36 37 37 36 36 36 38 31 30 24 33 31 25 25 28 27 25 26 30 32 36 36 38 38 38 38 37 36
53 52 46 42 34 38 38 35 38 38 39 41 40 38 36 38 39 40 39 38 38 34 37 37 31 26 18 31 26 23 27 26 27 30 29 25 32 36 36 37 37 37 37 36 36
Lifted_Index
5 5 5 5 4 4 4 5 5 5 5 5 5 5 5 5 4 3 3 3 3 4 5 5 5 4 3 3 3 3 1 1 1 1 2 2 2 1 0 -1 -1 -2 -2 -1 -1
5 5 5 5 5 4 4 5 5 5 5 5 5 5 5 5 4 3 3 3 3 4 5 5 4 3 3 3 3 3 2 1 1 2 2 2 2 2 0 -1 -2 -2 -2 -1 -1
6 6 6 5 5 4 4 4 4 5 5 5 5 5 5 4 3 2 3 3 3 4 4 4 3 2 2 2 2 2 2 2 2 2 2 2 3 3 1 -1 -2 -2 -2 -1 0
6 6 6 6 5 4 4 4 4 5 5 5 5 5 5 3 2 2 3 3 3 3 3 2 2 1 1 1 2 1 1 2 2 2 2 2 3 3 2 0 -2 -2 -1 -0 1
6 6 6 6 5 5 5 4 5 5 5 5 5 5 4 2 2 2 3 3 2 2 2 1 1 1 1 1 1 1 1 1 2 2 2 3 3 4 3 0 -1 -1 -1 -0 1
6 6 6 5 5 5 5 5 5 5 5 5 5 4 3 2 2 2 2 2 2 2 1 1 1 1 1 1 1 1 1 2 2 2 3 3 3 4 3 0 -1 -1 -1 -0 0
5 6 6 6 5 5 6 6 6 6 5 5 5 3 2 1 1 2 3 3 2 2 2 2 1 1 1 2 2 2 2 2 2 2 3 3 3 4 3 1 -0 -0 -0 0 0
6 5 5 6 6 6 6 6 6 6 5 4 4 2 1 1 2 2 3 3 3 2 2 2 2 1 2 2 2 2 2 2 2 2 2 3 3 4 3 2 1 1 1 1 1
6 6 6 6 6 6 6 6 5 5 4 4 3 2 1 1 2 3 3 2 2 2 2 2 2 1 1 1 2 2 2 2 2 2 2 3 3 3 4 3 3 3 2 2 1
6 6 6 6 6 6 5 5 4 3 3 3 2 1 1 1 2 3 3 2 1 1 1 1 1 1 1 1 1 1 2 2 2 1 2 2 3 3 4 3 3 3 2 1 1
6 6 6 6 6 5 4 3 2 2 2 3 2 1 1 2 3 3 3 2 1 1 1 1 1 1 1 1 1 1 1 1 2 2 2 2 2 3 3 3 2 2 1 1 0
5 5 6 6 5 4 2 1 -1 -0 1 2 2 2 2 3 3 3 2 2 1 1 1 1 1 1 1 1 1 1 1 1 2 2 2 2 2 2 2 2 2 2 1 0 -0
4 5 5 5 4 3 0 -1 -2 -1 0 2 2 3 3 3 3 3 2 2 1 1 1 1 1 2 2 1 1 1 1 1 1 1 1 2 2 2 2 3 2 2 1 0 -0
3 4 4 4 3 1 -1 -2 -2 -1 1 2 3 3 3 3 3 3 2 2 2 2 2 2 2 2 2 2 1 1 1 1 1 1 1 2 2 2 3 3 3 2 2 1 0
3 3 3 2 1 -1 -1 -2 -2 -1 1 3 3 3 3 2 3 3 3 2 2 2 2 2 2 2 2 1 2 2 2 2 2 1 1 1 2 2 2 2 2 2 2 1 1
2 2 2 0 -1 -2 -2 -1 -1 0 1 2 3 3 3 2 3 3 3 2 2 2 2 2 2 2 2 1 2 2 2 2 1 1 1 1 1 1 1 2 2 2 2 1 1
2 1 0 -2 -2 -2 -1 -0 0 1 2 2 3 3 3 2 3 3 3 2 2 2 2 2 2 2 2 2 2 2 2 1 1 1 1 1 1 1 1 1 2 2 2 2 2
2 1 -1 -2 -2 -1 -0 1 1 1 2 3 3 2 2 2 2 2 2 2 2 1 1 1 1 2 2 2 2 2 1 1 1 1 1 1 1 1 1 1 1 1 1 2 2
1 0 -1 -2 -1 -0 0 1 1 1 2 2 2 2 2 2 2 2 2 2 1 1 1 1 1 2 3 2 2 2 2 2 1 1 1 1 2 1 1 1 1 1 1 2 2
1 0 -1 -1 -0 1 1 1 1 2 2 2 2 2 2 2 2 2 1 2 2 1 1 1 1 2 3 2 2 2 2 2 2 1 1 1 2 2 1 1 1 1 1 1 1
1 1 -0 -1 1 2 2 1 1 2 2 2 2 2 2 2 2 1 1 2 2 2 1 1 2 2 3 3 3 3 3 3 2 2 1 2 2 2 2 2 2 2 1 1 1
1 1 -0 0 3 3 3 2 1 1 2 2 1 1 1 2 1 1 1 1 2 2 2 2 2 2 3 3 3 3 3 3 3 3 2 2 3 3 3 3 2 2 1 1 1
1 0 -0 1 3 4 3 2 1 1 1 1 1 1 1 1 1 1 1 1 2 2 2 2 2 2 2 3 3 3 4 4 4 4 3 3 3 3 3 3 2 2 1 1 1
0 0 1 1 2 3 3 2 2 1 1 1 1 1 1 1 1 1 1 2 3 3 3 3 3 3 3 3 4 4 4 5 5 4 3 3 3 4 3 3 2 2 2 2 2
0 1 1 2 2 2 2 2 2 1 1 1 2 2 1 1 1 1 1 2 3 3 3 3 3 3 3 4 4 5 5 5 4 4 4 4 4 4 3 3 2 2 2 2 2
-0 0 2 2 2 1 1 2 2 2 2 2 2 2 1 1 1 1 1 2 3 3 3 3 3 3 4 4 4 4 4 4 4 4 4 4 4 4 3 3 2 2 2 2 2
-0 0 1 2 1 1 1 2 2 2 2 2 2 2 1 1 1 1 1 2 3 3 3 3 4 3 3 4 4 4 4 4 4 4 4 4 4 4 3 3 2 2 2 2 3